Location: Reigate
(51.2333°N, 0.2167°W)
Time: 12:14:46
(UTC+00:00)

Daily predictions for brighter satellites

Satellite Brightness Start Highest point End
(mag) Time Altitude Azimuth Time Altitude Azimuth Time Altitude Azimuth
Meteor 2-3 Rocket 4.0 16:23:27 10° NNW 16:29:06 76° W 16:34:47 10° S
Cosmos 2084 Rocket 3.4 16:25:21 10° NW 16:29:12 77° SW 16:33:00 10° SE
NOSS 2-1 (D) 4.5 16:25:15 10° NW 16:29:18 61° SW 16:35:04 10° SSE
ISS -3.7 16:26:56 10° W 16:30:17 84° SSW 16:33:40 10° ESE
Cosmos 2279 Rocket 4.3 16:25:52 10° N 16:31:53 47° ENE 16:37:51 10° SE
Aureole 3 Rocket 3.2 16:27:44 10° N 16:33:00 60° ENE 16:36:50 10° SSE
Meteor 1-27 4.3 16:28:44 10° S 16:34:16 58° E 16:39:45 10° NNE
Spot 4 Rocket 4.3 16:30:09 10° S 16:35:16 76° WSW 16:40:26 10° NNW
ATLAS CENTAUR R/B 2.3 16:33:26 10° NW 16:36:48 54° NNE 16:43:05 10° ESE
Cosmos 1606 2.5 16:34:07 10° S 16:37:43 73° E 16:41:23 10° NNE
Cosmos 2237 Rocket 3.6 16:32:25 10° NW 16:37:44 44° WSW 16:43:01 10° S
Cosmos 2058 Rocket 3.9 16:35:47 10° SSE 16:39:40 31° E 16:43:34 10° NNE
Cosmos 405 Rocket 3.2 16:42:59 10° SSE 16:46:31 38° E 16:50:07 10° NNE
Cosmos 2150 Rocket 4.0 16:42:58 10° SSW 16:48:07 87° ESE 16:53:23 10° NNE
Cosmos 1140 Rocket 4.3 16:43:38 10° N 16:48:09 29° NE 16:52:36 10° ESE
USA 306 1.1 16:49:34 10° WNW 16:51:51 73° NNE 16:54:00 10° ESE
Cosmos 1606 Rocket 3.6 16:48:07 10° S 16:52:34 90° SE 16:57:03 10° N
SJ-7 4.3 16:49:41 10° SSE 16:53:39 75° ENE 16:57:41 10° N
SMAP 3.1 16:49:53 10° SSE 16:54:26 56° ENE 16:59:01 10° N
Cosmos 1726 Rocket 3.5 16:50:17 10° S 16:54:43 74° E 16:59:09 10° NNE
Cosmos 1500 3.3 16:54:34 10° N 16:57:59 43° ENE 17:01:21 10° SSE
Cosmos 1825 Rocket 4.4 16:57:27 10° NNW 17:01:40 53° W 17:05:51 10° S
Cosmos 1437 Rocket 2.5 16:58:31 10° N 17:02:14 77° ENE 17:05:58 10° SSE
Cosmos-2242 4.4 16:59:06 10° SE 17:02:14 20° E 17:05:03 11° NE
CZ-2D R/B 3.4 16:58:59 10° S 17:02:40 74° WSW 17:06:21 10° NNW
SL-8 R/B 4.1 17:02:16 10° W 17:06:59 61° S 17:11:42 10° ESE
Cosmos 2263 Rocket 2.8 17:02:30 10° S 17:07:34 37° ESE 17:12:14 12° NE
RESURS DK-1 4.3 17:07:03 10° N 17:08:45 12° NNE 17:09:17 12° NE
Tsikada Rocket 4.3 17:03:18 10° SSW 17:09:31 70° WNW 17:15:43 10° N
Cosmos 2151 2.9 17:05:35 10° N 17:09:52 83° ENE 17:14:09 10° SSE
Cosmos 2227 Rocket 2.3 17:04:21 10° SSW 17:10:02 84° WNW 17:15:44 10° NNE
Cosmos 2298 Rocket 4.5 17:05:38 10° SW 17:10:54 64° WNW 17:16:13 10° NNE
CZ-2C R/B 2.9 17:09:49 10° S 17:13:22 70° WSW 17:16:58 10° NNW
Cosmos 1238 Rocket 3.5 17:11:36 10° SSW 17:15:14 46° WNW 17:18:25 10° N
CORIOLIS 4.1 17:12:26 10° SSE 17:17:47 87° ENE 17:23:12 10° NNW
Helios 1B rocket 3.6 17:14:30 10° S 17:18:18 45° W 17:22:06 10° NNW
Cosmos 1603 4.1 17:13:14 10° NNW 17:18:37 40° NE 17:23:56 10° ESE
YAOGAN 1 3.9 17:19:24 18° ENE 17:19:39 18° ENE 17:22:37 10° NNE
Cosmos 2251 Rocket 4.0 17:15:24 10° NNW 17:20:24 39° NE 17:25:24 10° SE
CZ-4B R/B 3.5 17:17:13 10° SSE 17:20:47 83° ENE 17:24:27 10° NNW
Cosmos 1812 3.7 17:18:28 10° SE 17:21:26 23° E 17:22:20 21° ENE
CZ-4B R/B 3.5 17:18:55 10° SE 17:23:52 55° ENE 17:28:43 10° N
SL-16 R/B 4.3 17:18:47 10° N 17:23:54 27° NW 17:29:02 10° WSW
Cosmos 407 Rocket 3.9 17:20:15 10° NNW 17:25:06 38° NE 17:29:54 10° SE
ATLAS 2AS CENTAUR R/B 3.3 17:19:09 10° NW 17:25:46 39° NNE 17:30:16 18° E
USA 305 2.5 17:22:09 10° WNW 17:25:58 78° NNE 17:28:38 19° ESE
Meteor 1-31 Rocket 2.7 17:26:21 10° S 17:30:02 80° WSW 17:33:47 10° NNW
Lacrosse 4 Rocket 1.6 17:26:23 10° NNW 17:30:40 49° NE 17:34:32 12° ESE
Cosmos 724 4.5 17:24:44 10° SSW 17:30:51 63° ESE 17:35:29 18° NE
SL-16 R/B 3.2 17:26:29 10° NW 17:31:59 51° WSW 17:37:25 10° S
Cosmos 1544 4.2 17:33:54 10° NNW 17:36:59 39° W 17:40:02 10° SSW
Cosmos 1076 Rocket 4.3 17:41:32 10° NNW 17:45:48 53° W 17:50:03 10° S
Cosmos 1943 3.1 17:40:29 10° NNW 17:46:09 76° ENE 17:51:47 10° SE
Cosmos 1607 4.0 17:43:16 10° SW 17:49:38 87° NW 17:54:20 20° NE
Cosmos 1812 Rocket 3.8 17:46:24 10° SSE 17:50:31 44° E 17:52:19 28° NE
Radarsat Rocket 3.8 17:48:07 10° SSE 17:53:55 77° ENE 18:00:01 10° NNW
Cosmos 1190 Rocket 4.4 17:49:03 10° NNW 17:54:04 40° NE 17:56:11 28° ESE
SL-08 R/B 3.8 17:54:03 33° E 17:54:33 34° E 17:58:45 10° SSE
Cosmos 1602 4.0 17:53:56 10° NNW 17:57:38 64° W 18:01:19 10° S
ADEOS 3.5 17:53:24 10° SSE 17:58:30 59° ENE 18:03:39 10° N
Cosmos 2297 Rocket 3.8 17:53:52 10° WSW 17:58:48 30° NW 18:03:45 10° NNE
Cosmos 2219 3.7 17:54:51 10° SW 18:00:23 59° NW 18:05:03 15° NNE
USA 307 3.0 17:57:46 10° WNW 18:01:36 60° SSW 18:03:12 31° SE
Cosmos 1666 3.7 17:58:30 10° NNW 18:01:53 44° W 18:05:14 10° SSW
ADEOS Rocket 4.3 18:05:29 19° NNE 18:05:29 19° NNE 18:08:03 10° N
Cosmos 1023 Rocket 4.4 17:58:48 10° NNW 18:04:00 85° WSW 18:09:07 10° SSE
Meteor 1-25 Rocket 4.1 18:00:05 10° N 18:05:49 80° ENE 18:11:26 10° SSE
ISS -2.0 18:03:49 10° W 18:06:48 29° SSW 18:08:24 20° SSE
USA 234 3.2 18:03:40 30° ENE 18:07:12 71° SE 18:13:44 10° SW
Cosmos 1553 Rocket 4.4 18:02:16 10° N 18:08:11 39° ENE 18:10:27 29° ESE
BREEZE-M DEB (TANK) 2.9 18:09:47 10° WSW 18:10:54 29° SW 18:10:54 29° SW
Cosmos 2344 3.7 18:06:02 10° SSW 18:13:14 50° ESE 18:16:07 33° ENE
COSMO-SKYMED 1 2.4 18:11:55 38° NNE 18:13:29 69° ESE 18:17:48 10° S
Cosmos 2082 3.9 18:12:03 10° SW 18:17:38 67° WNW 18:21:20 22° NNE
Cosmos 2026 Rocket 3.9 18:16:55 10° S 18:23:03 63° E 18:29:19 10° NNE
Helios 1A 3.3 18:20:32 22° N 18:23:06 64° WNW 18:27:12 10° SSW
Cosmos 1833 Rocket 4.2 18:19:14 10° NNW 18:22:32 21° NNE 18:22:32 21° NNE
Lacrosse 5 3.5 18:22:34 10° S 18:24:55 20° SSE 18:24:55 20° SSE
Cosmos 2195 Rocket 4.4 18:22:54 10° S 18:29:13 79° E 18:35:31 10° NNE
Cosmos 1140 Rocket 4.1 18:25:09 10° NNW 18:30:14 56° WSW 18:35:15 10° S
SME Rocket 4.2 18:27:09 10° SSE 18:32:41 78° ENE 18:41:22 10° NNW
CZ-4B R/B 3.0 18:34:39 72° N 18:34:39 72° N 18:38:29 10° NNW
Cosmos 1092 Rocket 3.8 18:30:13 10° S 18:36:21 78° E 18:42:30 10° NNE
Cosmos-2242 3.8 18:35:02 10° SSW 18:39:16 51° WNW 18:41:45 23° N
Nadezhda 4 Rocket 4.5 18:33:51 10° SSW 18:39:54 59° WNW 18:45:58 10° N
CZ-4B R/B 4.0 18:42:41 36° NNE 18:42:41 36° NNE 18:46:20 10° N
ATLAS CENTAUR R/B 3.7 18:37:16 10° WNW 18:41:44 47° SW 18:50:06 10° SSE
Meteor 1-5 Rocket 4.1 18:41:41 10° NNW 18:47:21 86° ENE 18:53:10 10° SSE
Cosmos 676 Rocket 4.4 18:42:05 10° NNW 18:46:17 50° NNE 18:46:17 50° NNE
RESURS DK-1 4.3 18:43:32 10° NNW 18:44:58 20° NNW 18:44:58 20° NNW
Cosmos 2227 4.1 18:43:22 10° SSW 18:49:09 89° ESE 18:50:09 63° NNE
Cosmos 2263 Rocket 3.0 18:46:03 10° SW 18:51:24 46° NW 18:53:56 28° N
Cosmos 1844 Rocket 3.5 18:47:12 10° S 18:50:37 35° SSE 18:50:37 35° SSE
Cosmos 2082 Rocket 4.2 18:50:35 10° N 18:52:13 14° N 18:52:13 14° N
Cosmos 2227 Rocket 4.1 18:50:30 10° W 18:54:56 23° NW 18:58:05 15° N
YAOGAN 1 3.4 18:56:27 44° NW 18:56:27 44° NW 18:59:33 10° NNW
Cosmos 1812 4.3 18:53:09 10° SW 18:56:27 31° WNW 18:56:48 30° WNW
USA 305 4.4 18:57:13 10° WNW 18:59:56 29° WSW 18:59:56 29° WSW
Lacrosse 4 Rocket 3.5 19:05:14 10° NW 19:08:49 26° WSW 19:10:41 19° SSW
ATLAS 2AS CENTAUR R/B 2.5 19:10:23 10° NW 19:17:23 84° SW 19:17:44 80° S
Cosmos 1818 4.3 19:17:14 10° SW 19:21:04 48° SW 19:21:04 48° SW
USA 234 3.6 19:51:01 59° NW 19:51:01 59° NW 19:56:40 10° W
Cosmos 2344 4.2 20:20:29 10° WSW 20:26:10 46° WNW 20:26:10 46° WNW
